Regional Weather Roundup
Issued by NWS Wakefield, VA

Home | Current Version | Previous Version | Text Only | Print | Product List | Glossary Off
Versions: 1 2 3 4 5 6 7 8 9 10 11 12 13 14 15 16 17 18 19 20 21 22 23 24 25 26 27 28 29 30 31 32 33 34 35 36 37 38 39 40 41 42 43 44 45 46 47 48 49 50

000
ASUS41 KAKQ 200910
RWRAKQ

REGIONAL WEATHER ROUNDUP
NATIONAL WEATHER SERVICE WAKEFIELD VA
500 AM EDT WED AUG 20 2014

Note: "fair" indicates few or no clouds below 12,000 feet with no
significant weather and/or obstructions to visibility. * = Denotes
station may not report precipitation (e.g., rain,snow,etc.),
thunder or fog.

VAZ042-051-052>054-056-201000-
NORTHERN VIRGINIA

CITY           SKY/WX    TMP DP  RH WIND       PRES   REMARKS
WASH NATIONAL  PTCLDY    73  62  68 SE7       29.92S
DULLES         CLOUDY    70  66  87 S3        29.92S
FORT BELVOIR   PTCLDY    66  66 100 NW2       29.93R
QUANTICO       CLOUDY    72  67  84 S6        29.93R
FREDERICKSBRG* CLOUDY    69  69 100 CALM      29.91S FOG
STAFFORD*      CLOUDY    67  67 100 CALM      29.96S FOG
WARRENTON      FOG       69  69 100 CALM      29.92S VSB 3/4
CULPEPER*      CLOUDY   N/A N/A N/A CALM      29.93R FOG
MANASSAS*      MOCLDY    70  70 100 CALM      29.92S
LEESBURG*      CLOUDY    73  72  94 CALM      29.94R
WINCHESTER     CLEAR     64  64 100 CALM      29.92S FOG
$$

VAZ048-049-060>072-079>083-201000-
CENTRAL AND SOUTH CENTRAL VIRGINIA...AND NORTH CENTRAL NORTH CAROLINA

CITY           SKY/WX    TMP DP  RH WIND       PRES   REMARKS
RICHMOND       PTCLDY    71  68  90 NE3       29.92R
CHESTERFIELD*  PTSUNNY  N/A N/A N/A CALM      29.93R
HANOVER        FOG       67  67 100 CALM      29.94S VSB 1
TAPPAHANNOCK*    N/A     66  64  93 CALM      29.93R FOG
CHARLOTTSVILLE CLOUDY    72  70  93 S5        29.93S
ORANGE*        CLOUDY    68  66  94 CALM      29.94S FOG
LOUISA*        CLEAR     70  68  94 SE3       29.92S FOG
FARMVILLE*     CLOUDY    72  70  94 CALM      29.91S FOG
SOUTH HILL*    FOG       72  72 100 CALM      29.97S VSB 1/2
ROANOKE RAPIDS CLOUDY    68  68 100 CALM      29.91R FOG
RALEIGH        CLOUDY    72  70  93 NE5       29.92R FOG
$$

VAZ088>098-201000-
SOUTHEAST VIRGINIA

CITY           SKY/WX    TMP DP  RH WIND       PRES   REMARKS
NORFOLK        MOCLDY    75  70  84 NE8       29.88S
VIRGINIA BEACH MOCLDY    75  71  87 NE7       29.87S
NORFOLK NAVAL  MOCLDY    76  71  85 NE9       29.90S
WEST POINT*    CLEAR     71  68  92 CALM      29.92S
NEWPORT NEWS   PTCLDY    73  69  87 CALM      29.89S
LANGLEY AFB    PTCLDY    73  73 100 NE12      29.89R
FORT EUSTIS    CLEAR     72 N/A N/A NE3       29.88S
WILLIAMSBURG*  CLEAR     72  70  94 NE3       29.91S
FRANKLIN*      PTCLDY    70 N/A N/A CALM      29.90R
WAKEFIELD      CLEAR     70  67  90 CALM      29.90S FOG
$$

VAZ020-022-025-037-045-201000-
WESTERN AND SOUTHWEST VIRGINIA

CITY           SKY/WX    TMP DP  RH WIND       PRES   REMARKS
STAUNTON*      MOCLDY    67  65  94 CALM      29.96S FOG
HOT SPRINGS VA NOT AVBL
LYNCHBURG      CLOUDY    70  70 100 CALM      29.96S FOG
DANVILLE       MOCLDY    71  69  93 CALM      29.93S
MARTINSVILLE   CLOUDY    70  69  99 CALM      29.97S FOG
ROANOKE        CLEAR     65  63  93 NW3       29.98R
BLACKSBURG     FOG       66  66 100 CALM      30.03R VSB<1/4
DUBLIN*        FOG       66  66 100 CALM      30.02R VSB 1/4
MARION*        CLOUDY    66  65  97 W3        30.05R FOG
HILLSVILLE*    FOG       63  63 100 S3        30.03R VSB 1/2
RICHLANDS*     FOG       67  66  95 CALM      30.03S VSB 1/2
WISE*          MOCLDY    66  66 100 SW9       30.04S FOG
ABINGDON*      MOCLDY    68  68 100 CALM      30.02R FOG
$$

MDZ021>025-VAZ099-100-201000-
SOUTHERN MARYLAND AND THE DELMARVA PENINSULA

CITY           SKY/WX    TMP DP  RH WIND       PRES   REMARKS
PATUXENT RIVER CLEAR     65  63  93 CALM      29.92S
BAY BRIDGE APT   N/A     66  64  94 CALM      29.93S
LEONARDTOWN    CLEAR     64  63  94 CALM      29.94S
DOVER          CLEAR     64  64 100 NW2       29.92S
GEORGETOWN     CLEAR     64  61  90 VRB5      29.93S
EASTON         CLEAR     65  65 100 CALM      29.96S
CAMBRIDGE      CLEAR     63  61  94 CALM      29.92S
SALISBURY      CLEAR     66  62  87 CALM      29.92R
OCEAN CITY     CLEAR     72  65  78 NE6       29.91S
WALLOPS ISLAND CLEAR     69  65  86 N6        29.91S
ACCOMACK*        N/A     63  61  94 NE3       29.91R FOG
$$

NCZ012>017-030>032-201000-
EASTERN NORTH CAROLINA

CITY           SKY/WX    TMP DP  RH WIND       PRES   REMARKS
ELIZABETH CITY CLEAR     74  72  93 N6        29.87S
AHOSKIE*       PTCLDY    69  68  97 CALM      29.90R
EDENTON*       CLEAR     70  70  98 CALM      29.88R FOG
CURRITUCK*     PTCLDY    75  72  89 NE6       29.88F
KILL DEVIL HLS MOCLDY    75  73  94 N3        29.86R
MANTEO         MOCLDY    73  73 100 CALM      29.87R
CAPE HATTERAS  PTCLDY    74  73  97 CALM      29.85R
GOLDSBORO      CLEAR     73  72  98 NE2       29.88R
WASHINGTON     CLOUDY    71  71  98 N3        29.89R VSB 1/2
GREENVILLE     CLOUDY    72  72 100 CALM      29.92R FOG
NEW BERN       CLOUDY    75  72  90 NW3       29.89S FOG
WILMINGTON     PTCLDY    75  73  93 W5        29.89S
$$

VAZ048-201000-
ELSEWHERE

CITY           SKY/WX    TMP DP  RH WIND       PRES   REMARKS
HARRISBURG PA  MOCLDY    70  64  81 SE5       29.92R
BALTIMORE      PTCLDY    67  63  87 CALM      29.92F
ANNAPOLIS      CLEAR     68  65  90 CALM      29.92S
ANDREWS AFB    CLEAR     67  65  93 E2        29.93R
WILMINGTON DE  CLOUDY    72  66  81 SE3       29.95R
PHILADELPHIA   CLOUDY    72  65  78 SE3       29.95S
WILDWOOD NJ*   CLOUDY    64  61  88 CALM      29.94S
ATLANTIC CITY  CLOUDY    65  63  93 CALM      29.94R
HENDERSON NC   CLOUDY    71  69  95 E3        29.93R FOG
GREENSBORO     MOCLDY    72  70  93 N3        29.93S
ROCKY MOUNT    CLOUDY    71  70  96 CALM      29.91R FOG
FAYETTEVILLE   PTCLDY    74  72  93 W6        29.90R
CHARLOTTE      PTCLDY    70  67  90 CALM      29.93S
$$

VAZ100-201000-
MARINE

STATION/POSITION TIME  TEMP    WIND        PRES    WAVE   SWELL
                       AIR SEA DIR/SP/G            HT/PER HT/PER
                 (UTC) (F)     (DEG/KT/KT) (MB)    (FT/S) (FT/S)
44066 TX TWR #4  0900   72 72   60/ 10/ 12 1013.1R   2/ 5   2/ 6
CAPE MAY NJ      0900   69 79   50/  1/  2 1012.9S
LEWES DE         0900   72 74  110/  4/  5 1012.8F
15NM E FENWICK I 0900   74 74              1012.5R   3/ 6
OCEAN-CITY-INLET 0900   73 75   80/  6/ 10 1012.5R
WACHAPREAGUE VA  0900   68 78  310/  2/  4 1012.5R
THOMAS POINT MD  0900   73 77  130/  7/  7 1013.7S
GOOSES REEF MD   0900   74     110/  4/  6 1013.6S
COVE POINT MD    0900   72      80/  5/  6 1013.0S
SOLOMONS ISLAND  0900      80                N/A
BISHOPS HEAD MD  0900   71 77   50/  4/  6 1012.4F
PINEY POINT MD   0900           30/  4/  4   N/A
POTOMAC MD       0900   75      70/  8/ 10 1012.1R
CAMBRIDGE MD     0900   69 78   40/  3/  4 1012.9S
LEWISETTA VA     0900   74 78   70/  6/  7 1012.6S
RAPPAHANNOCK LGT 0900           40/ 10/ 11 1013.0S
STINGRAY PT      0900   76      70/ 10/ 12 1013.1S
YORK RVR RNG VA  0900   76      70/ 11/ 13 1011.7S
YORKTOWN VA      0900   75 80   40/  7/  8 1012.0R
JAMESTOWN VA     0900   70      40/  4/  6   N/A
DOMINION TERM VA 0900   75      40/  2/  3 1012.0R
KIPTOPEKE VA     0900      81   30/  3/  5   N/A
CHES BAY BRIDGE  0900   76 78   40/ 11/ 12 1011.4R
CAPE HENRY VA    0900   76      50/ 12/ 13 1010.7S
CHESAPEAKE LGHT  0800   76      50/ 14/ 15 1012.1R
WILLOUBY STN VA  0900   76      40/  8/  9 1010.8R
S CRANEY ISL VA  0900           40/  7/  9 1011.5S
CAPE HENRY BUOY  0800      76                N/A     3/ 5
1ST LANDING BUOY 0900   76      50/ 10/ 14 1011.6S
CAPE CHARLES BUO 0900      77                N/A     3/ 6   2/ 6
OFFSHORE WE BUOY 0800      77                N/A     4/ 6   2/ 7
64NM E OF VA BCH 0900   77 78   40/ 14/ 16 1010.8R   3/ 6   2/ 7
DUCK PIER NC     0900   77 78   40/ 10/ 13 1010.6R
44056 DUCK FRF   0800                        N/A     2/ 5
OREGON INLET NC  0900   75 81  350/  3/  4 1011.0S
HATTERAS NC      0900   80 82  360/  6/  7 1011.1F
DIAMOND SHLS NC  0900   79     320/  8/ 12 1010.4S   2/ 6   2/ 6
CAPE LOOKOUT NC  0900   79     350/  7/  7 1011.1R
$$


USA.gov is the U.S. government's official web portal to all federal, state and local government web resources and services.